{"data":{"norad_id":66011,"epoch":"2026-05-25T03:20:21.135264Z","epoch_age_seconds":57046,"freshness":"FRESH","line1":"1 66011U 25232G   26145.13913351  .00018014  00000+0  61863-3 0  9992","line2":"2 66011  53.1581 108.5725 0001201 102.0853 258.0282 15.30211839 35143","mean_motion":15.30211839,"eccentricity":0.0001201,"inclination_deg":53.1581,"raan_deg":108.5725,"arg_perigee_deg":102.0853,"mean_anomaly_deg":258.0282,"bstar":0.00061863,"rev_number":3514,"period_min":94.104617628697,"perigee_km":474.35663718909,"apogee_km":476.00280386536,"semimajor_km":6853.3167205272,"source":"CELESTRAK","updated_at":"2026-05-25T13:38:21.014513Z"}}